Location: Frizzleburg
(41.0764°N, 80.4548°W)
Time: 20:19:15
(UTC+00:00)

OAO 3 Rocket - Pass Details

Date: 17 November 2019
Orbit: 629 x 683 km, 35.0° (Epoch: 05 December)

Event Time Altitude Azimuth Distance (km) Brightness Sun altitude
Exits shadow 11:00:05 15° 250° (WSW) 1,750 4.9 -13.5°
Maximum altitude 11:03:34 37° 189° (S) 1,017 4.2 -12.9°
Drops below altitude 10° 11:07:55 10° 122° (ESE) 2,036 7.0 -12.1°
Sets 11:10:23 0° 114° (ESE) 2,935 8.5 -11.7°
